Regional Weather Roundup
Issued by NWS

Home | Current Version | Previous Version | Graphics & Text | Print | Product List | Glossary On
Versions: 1 2 3 4 5 6 7 8 9 10 11 12 13 14 15 16 17 18 19 20 21 22 23 24 25 26 27 28 29 30 31 32 33 34 35 36 37 38 39 40 41 42 43 44 45 46 47 48 49 50
000
ASUS43 KFSD 282210
RWRSD

WEATHER ROUNDUP FOR SOUTH DAKOTA
NATIONAL WEATHER SERVICE SIOUX FALLS SD
400 PM CST FRI NOV 28 2014

NOTE: "FAIR" INDICATES FEW OR NO CLOUDS BELOW 12,000 FEET WITH NO
SIGNIFICANT WEATHER AND/OR OBSTRUCTIONS TO VISIBILITY.


SDZ001>005-009-010-012>017-282300-
NORTHWEST AND NORTH CENTRAL SOUTH DAKOTA

CITY           SKY/WX    TMP DP  RH WIND       PRES   REMARKS
BUFFALO          N/A     51  33  50 SW12      29.47F
FAITH            N/A     47  30  51 S13       29.55F
MOBRIDGE       PTCLDY    25  19  78 E10       29.59S WCI  15
$$

SDZ012>016-024>037-041>051-057-063-072>074-282300-
SOUTHWEST AND SOUTH CENTRAL SOUTH DAKOTA

CITY           SKY/WX    TMP DP  RH WIND       PRES   REMARKS
RAPID CTY ARPT MOSUNNY   58  25  28 W10       29.56S
PIERRE         CLEAR     41  25  53 CALM      29.60F
CUSTER         PTSUNNY   49  22  34 W13       29.67F
ELLSWORTH AFB  MOSUNNY   61  33  35 VRB3      29.56S
PHILIP         CLEAR     59  33  37 E7        29.56F
PINE RIDGE     MOSUNNY   66  21  18 W15G28    29.63S
SPEARFISH      FAIR      57  25  28 SW10G20   29.60S
WINNER         FAIR      58  30  34 N5        29.61S
$$

SDZ004>011-016>023-039-040-282300-
NORTHEAST SOUTH DAKOTA

CITY           SKY/WX    TMP DP  RH WIND       PRES   REMARKS
ABERDEEN       PTCLDY    21  14  74 E9        29.68F WCI  11
WATERTOWN      PTCLDY    18  13  80 E8        29.67R WCI   8
SISSETON         N/A     18  14  84 S10       29.73F WCI   6
$$

SDZ017-020-022-023-036>040-048>070-282300-
SOUTHEAST SOUTH DAKOTA

CITY           SKY/WX    TMP DP  RH WIND       PRES   REMARKS
SIOUX FALLS    MOCLDY    34  28  79 SE8       29.66S WCI  27
HURON          PTCLDY    38  26  62 CALM      29.66R
CHAMBERLAIN    CLEAR     48  28  45 NE3       29.63R
MITCHELL       CLEAR     42  29  59 E6        29.65F
YANKTON        CLEAR     45  28  53 E9        29.65R
$$

ABBREVIATIONS USED IN REMARKS
   TC - TEMPERATURE IN CELSIUS
  WCI - WIND CHILL INDEX
   HX - HEAT INDEX
  VSB - VISIBILITY




USA.gov is the U.S. government's official web portal to all federal, state and local government web resources and services.